Regional Weather Roundup
Issued by NWS

Home | Current Version | Previous Version | Graphics & Text | Print | Product List | Glossary On
Versions: 1 2 3 4 5 6 7 8 9 10 11 12 13 14 15 16 17 18 19 20 21 22 23 24 25 26 27 28 29 30 31 32 33 34 35 36 37 38 39 40 41 42 43 44 45 46 47 48 49 50
000
ASUS45 KCYS 042210
RWRWY

WYOMING REGIONAL WEATHER ROUNDUP
NATIONAL WEATHER SERVICE CHEYENNE WY
400 PM MDT MON MAY 04 2015

NOTE:  "FAIR" INDICATES FEW OR NO CLOUDS BELOW 12,000 FEET
WITH NO SIGNIFICANT WEATHER AND/OR OBSTRUCTIONS TO VISIBILITY.

WYZ001-042300-
YELLOWSTONE NATIONAL PARK

CITY           SKY/WX    TMP DP  RH WIND       PRES   REMARKS
LK YELLOWSTONE   N/A     53  31  42 VRB5      30.07F
W YELLOWSTONE  NOT AVBL

$$
WYZ002>013-054>058-071-098>099-042300-
NORTHERN WYOMING

CITY           SKY/WX    TMP DP  RH WIND       PRES   REMARKS
JACKSON        PTSUNNY   59  30  33 S10       30.04R
CODY           FAIR      63  46  55 E13       29.95F
GREYBULL       FAIR      74  37  26 S9        29.88F
WORLAND        FAIR      73  36  25 CALM      29.89F
SHERIDAN       FAIR      71  42  35 S12       29.93F
BUFFALO        PTSUNNY   68  43  40 SE16G22   29.99F
GILLETTE       FAIR      60  40  47 S29G36    30.01F
HULETT         MOCLDY    63  39  42 S10G20    30.06F
NEWCASTLE      FAIR      57  32  38 SE23G31   30.10F

$$
WYZ014>020-022>026-101>103-042300-
CENTRAL WYOMING

CITY           SKY/WX    TMP DP  RH WIND       PRES   REMARKS
BIG PINEY      FAIR      60  28  29 NW5       30.03F
PINEDALE       FAIR      61  30  31 CALM      30.03F
DUBOIS         MOCLDY    61  28  29 N12       30.01F
LANDER         FAIR      68  39  34 E6        29.94F
RIVERTON       FAIR      68  35  29 NE7       29.96F
CASPER         FAIR      61  47  59 E10       29.98F
DOUGLAS        FAIR      55  42  61 SE23G30   30.05F

$$
WYZ021-027>030-104>119-042300-
SOUTHERN WYOMING

CITY           SKY/WX    TMP DP  RH WIND       PRES   REMARKS
EVANSTON       LGT RAIN  52  39  61 CALM      30.06R
KEMMERER       DRIZZLE   55  34  44 NE7       30.04F
FORT BRIDGER   PTCLDY    61  36  39 SW5       30.06S
ROCK SPRINGS   PTSUNNY   60  36  40 S17       30.00F
DIXON          MOCLDY    61  40  45 E12       30.04R
RAWLINS        FAIR      64  33  31 VRB6      30.01F
SARATOGA       CLOUDY    59  37  44 MISG      30.06R
LARAMIE        CLOUDY    47  40  76 SE18      30.11S
CHEYENNE       CLOUDY    55  43  63 S12       30.10S
TORRINGTON     PTSUNNY   58  39  49 SE18      30.08F
PINE BLUFFS    MOCLDY    57  45  62 SE12      30.10F

$$


USA.gov is the U.S. government's official web portal to all federal, state and local government web resources and services.